Location: Costa Valle Imagna
(45.8000°N, 9.5000°E)
Time: 14:21:27
(UTC+00:00)

PAYLOAD B - Pass Details

Date: 17 February 2020
Orbit: 848 x 872 km, 99.1° (Epoch: 07 April)

Event Time Altitude Azimuth Distance (km) Brightness Sun altitude
Rises 05:27:32 0° 11° (N) 3,467 7.4 -10.2°
Reaches altitude 10° 05:29:57 10° 8° (N) 2,522 6.7 -9.7°
Maximum altitude 05:35:27 59° 290° (WNW) 996 4.3 -8.8°
Drops below altitude 10° 05:40:52 10° 213° (SSW) 2,491 6.4 -7.9°
Sets 05:43:15 0° 209° (SSW) 3,420 7.2 -7.4°
